TimeEDT,TemperatureF,Dew PointF,Humidity,Sea Level PressureIn,VisibilityMPH,Wind Direction,Wind SpeedMPH,Gust SpeedMPH,PrecipitationIn,Events,Conditions,WindDirDegrees,DateUTC
12:53 AM,55.9,53.1,90,30.13,10.0,Calm,Calm,-,N/A,,Clear,0,2013-04-23 04:53:00
1:53 AM,54.0,52.0,93,30.12,10.0,NNW,3.5,-,N/A,,Clear,330,2013-04-23 05:53:00
2:53 AM,55.9,52.0,87,30.09,10.0,NNE,4.6,-,N/A,,Clear,20,2013-04-23 06:53:00
3:53 AM,55.0,52.0,89,30.08,10.0,North,3.5,-,N/A,,Clear,10,2013-04-23 07:53:00
4:53 AM,53.1,51.1,93,30.08,10.0,Calm,Calm,-,N/A,,Clear,0,2013-04-23 08:53:00
5:53 AM,51.1,50.0,96,30.09,10.0,Calm,Calm,-,N/A,,Clear,0,2013-04-23 09:53:00
6:53 AM,52.0,50.0,93,30.11,9.0,Calm,Calm,-,N/A,,Clear,0,2013-04-23 10:53:00
7:53 AM,57.0,55.0,93,30.12,10.0,NNE,4.6,-,N/A,,Clear,20,2013-04-23 11:53:00
8:53 AM,62.1,57.0,84,30.14,10.0,NE,10.4,-,N/A,,Clear,40,2013-04-23 12:53:00
9:53 AM,68.0,57.0,68,30.16,10.0,NE,9.2,-,N/A,,Clear,40,2013-04-23 13:53:00
10:53 AM,72.0,55.0,55,30.16,10.0,East,10.4,-,N/A,,Clear,80,2013-04-23 14:53:00
11:53 AM,72.0,55.9,57,30.16,10.0,ENE,8.1,23.0,N/A,,Clear,70,2013-04-23 15:53:00
12:53 PM,75.9,57.0,52,30.14,10.0,East,9.2,16.1,N/A,,Clear,80,2013-04-23 16:53:00
1:53 PM,77.0,55.9,48,30.12,10.0,East,9.2,-,N/A,,Scattered Clouds,100,2013-04-23 17:53:00
2:53 PM,79.0,55.0,44,30.11,10.0,NE,9.2,16.1,N/A,,Partly Cloudy,50,2013-04-23 18:53:00
3:53 PM,80.1,54.0,40,30.09,10.0,ENE,10.4,19.6,N/A,,Clear,70,2013-04-23 19:53:00
4:53 PM,79.0,53.1,40,30.09,10.0,East,10.4,20.7,N/A,,Partly Cloudy,80,2013-04-23 20:53:00
5:53 PM,78.1,53.1,42,30.10,10.0,East,9.2,19.6,N/A,,Partly Cloudy,80,2013-04-23 21:53:00
6:53 PM,75.0,52.0,44,30.11,10.0,ENE,8.1,-,N/A,,Clear,70,2013-04-23 22:53:00
7:53 PM,69.1,54.0,58,30.11,10.0,East,8.1,-,N/A,,Clear,90,2013-04-23 23:53:00
8:53 PM,64.9,54.0,68,30.13,10.0,East,6.9,-,N/A,,Clear,90,2013-04-24 00:53:00
9:53 PM,62.1,55.0,78,30.15,10.0,East,6.9,-,N/A,,Clear,90,2013-04-24 01:53:00
10:53 PM,59.0,54.0,83,30.15,10.0,East,5.8,-,N/A,,Clear,100,2013-04-24 02:53:00
11:53 PM,57.0,54.0,89,30.15,10.0,Calm,Calm,-,N/A,,Clear,0,2013-04-24 03:53:00